This is the latest recevied weather packets stored in our database for station/object M0TUM-1. If no packets are shown the sender has not sent any weather packets the latest 10 day(s).
| Time | Temp. | Humidity | Pressure | Rain* | Wind** | Luminosity | Snow |
|---|---|---|---|---|---|---|---|
| 1778059198 | 10° C | 84% | 1012.5 hPa | 0 mm | - | 200 W/m² | - |
| 1778058897 | 10° C | 85% | 1012.1 hPa | 0 mm | - | 219 W/m² | - |
| 1778058593 | 10° C | 85% | 1012.2 hPa | 0 mm | - | 203 W/m² | - |
| 1778058291 | 9.44° C | 85% | 1012.1 hPa | 0 mm | - | 161 W/m² | - |
| 1778057987 | 9.44° C | 86% | 1012.2 hPa | 0 mm | - | 155 W/m² | - |
| 1778057684 | 9.44° C | 86% | 1012.1 hPa | 0 mm | - | 166 W/m² | - |
| 1778057381 | 9.44° C | 87% | 1012.3 hPa | 0 mm | - | 127 W/m² | - |
| 1778057078 | 10° C | 87% | 1012.2 hPa | 0 mm | - | 146 W/m² | - |
| 1778056774 | 10° C | 87% | 1012.2 hPa | 0 mm | - | 268 W/m² | - |
| 1778056471 | 10° C | 88% | 1012.2 hPa | 0 mm | - | 454 W/m² | - |
| 1778056168 | 9.44° C | 88% | 1012 hPa | 1.27 mm | - | 326 W/m² | - |
| 1778055866 | 9.44° C | 88% | 1011.9 hPa | 1.27 mm | - | 269 W/m² | - |
| 1778055561 | 9.44° C | 88% | 1012.1 hPa | 1.78 mm | - | 162 W/m² | - |
| 1778055260 | 9.44° C | 88% | 1012.1 hPa | 1.78 mm | - | 149 W/m² | - |
| 1778054956 | 9.44° C | 88% | 1012.2 hPa | 0 mm | - | 240 W/m² | - |
| 1778054653 | 9.44° C | 88% | 1012.1 hPa | 0 mm | - | 432 W/m² | - |
| 1778054351 | 9.44° C | 88% | 1012.1 hPa | 0 mm | - | 150 W/m² | - |
| 1778054049 | 8.89° C | 88% | 1012.2 hPa | 0 mm | - | 144 W/m² | - |
| 1778053745 | 8.89° C | 88% | 1011.9 hPa | 0 mm | - | 79 W/m² | - |
| 1778053442 | 8.89° C | 88% | 1011.9 hPa | 1.78 mm | - | 56 W/m² | - |
| 1778053140 | 8.89° C | 88% | 1011.9 hPa | 1.78 mm | - | 48 W/m² | - |
| 1778052837 | 8.89° C | 88% | 1011.8 hPa | 3.05 mm | - | 93 W/m² | - |
| 1778052534 | 8.89° C | 88% | 1011.9 hPa | 4.32 mm | - | 83 W/m² | - |
| 1778052232 | 8.89° C | 88% | 1011.9 hPa | 3.05 mm | - | 58 W/m² | - |
| 1778051929 | 8.89° C | 88% | 1011.7 hPa | 1.78 mm | - | 50 W/m² | - |
* Rain latest hour (hover to see other rain measurements)
** Current wind speed in m/s (hover to see current wind gust speed)